Regional Weather Roundup
Issued by NWS

Home | Current Version | Previous Version | Graphics & Text | Print | Product List | Glossary On
Versions: 1 2 3 4 5 6 7 8 9 10 11 12 13 14 15 16 17 18 19 20 21 22 23 24 25 26 27 28 29 30 31 32 33 34 35 36 37 38 39 40 41 42 43 44 45 46 47 48 49 50
000
ASUS45 KSLC 030510
RWRUT

UTAH REGIONAL WEATHER ROUNDUP
NATIONAL WEATHER SERVICE SALT LAKE CITY UT
1100 PM MDT WED SEP 02 2015

UTZ001>011-023>025-030600-

NORTHERN UTAH

CITY           SKY/WX    TMP DP  RH WIND       PRES   REMARKS
BRIGHAM CITY   PTCLDY    76  38  25 SE7       29.84S
HILL AFB       MOCLDY    80  40  24 S14G24    29.89S
LOGAN          CLEAR     69  45  41 S8        29.85F
OGDEN          PTCLDY    80  40  23 S15       29.86S
PROVO AIRPORT  MOCLDY    73  39  29 S14       29.93F
SALT LAKE CITY MOCLDY    81  37  20 S14       29.86S
VERNAL         MOCLDY    69  42  37 NW6       30.02S
WENDOVER       CLEAR     82  28  14 SW17      29.82S
HEBER CITY     PTCLDY    66  37  34 CALM      30.01S
WEST JORDAN    CLEAR     81  34  18 SE13      29.91S

$$

UTZ012>022-026-027-030600-

SOUTHERN/CENTRAL UTAH

CITY           SKY/WX    TMP DP  RH WIND       PRES   REMARKS
BLANDING       CLOUDY    66  50  55 S13       30.26R
BRYCE CANYON   MOCLDY    55  37  50 W8        30.25S
CEDAR CITY     MOCLDY    68  36  30 S6        30.08S
DELTA          PTCLDY    75  32  20 S10G16    29.98R
HANKSVILLE     PTCLDY    79  41  25 E5        29.99F
MILFORD        MOCLDY    69  39  33 S9        30.02S
MOAB/CYNLANDS  CLEAR     76  43  30 VRB3      29.98S
PRICE          MOCLDY    68  42  38 NE6       30.06S
ST GEORGE      PTCLDY    86  39  19 S7        29.92R
KANAB          CLOUDY    64  55  72 CALM      30.13R

$$

REGIONAL REPORTS     COLORADO/ARIZONA

CITY           SKY/WX    TMP DP  RH WIND       PRES   REMARKS
CRAIG, CO      MOCLDY    53  48  83 CALM      30.13F
GRAND JUNCTION PTCLDY    73  51  46 E9        30.03F
RIFLE          PTCLDY    63  53  70 S5        30.10S
MONTROSE       PTCLDY    68  49  50 SE9       30.15S
CORTEZ         CLOUDY    66  54  65 CALM      30.19S THUNDER
PAGE, AZ       PTCLDY    79  52  38 SW9G24    30.01F
GRAND CANYON   MOCLDY    55  45  68 CALM      30.25R
KINGMAN        PTCLDY    76  43  30 S12       29.99R
FLAGSTAFF      PTCLDY    53  41  63 CALM      30.29S

$$

REGIONAL REPORTS    NEVADA/IDAHO/WYOMING

CITY           SKY/WX    TMP DP  RH WIND       PRES   REMARKS
LAS VEGAS, NV  PTCLDY    90  35  14 S14       29.80R
ELY            CLEAR     64  34  32 S12       30.04S
ELKO           CLEAR     67  23  19 CALM      29.89R
POCATELLO, ID  CLEAR     67  45  45 E3        29.81F
BURLEY         PTCLDY    59  47  64 S5        29.77F
EVANSTON, WY   PTCLDY    63  35  35 S10       30.10F
ROCK SPRINGS   PTCLDY    63  39  41 S6        30.11S
KEMMERER       PTCLDY    63  32  31 S6        30.12F

$$



USA.gov is the U.S. government's official web portal to all federal, state and local government web resources and services.